| time (UTC) | temp C | wind direction | speed KPH | gust KPH | rain 1hr cm | rain 24hr cm | rain mn cm | humidity % | barometer mb |
| 20260504070350 | 6 | 52 | 1.6 | 1.6 | 0.00 | 0.00 | 0.00 | 86 | 1006.5 |
| 20260504050738 | 6 | 42 | 0.0 | 0.0 | 0.00 | 0.00 | 0.00 | 76 | 1006.9 |
| 20260504050235 | 6 | 47 | 0.0 | 0.0 | 0.00 | 0.00 | 0.00 | 75 | 1006.6 |
| 20260504045732 | 6 | 47 | 0.0 | 0.0 | 0.00 | 0.00 | 0.00 | 74 | 1006.6 |
| 20260504045227 | 6 | 47 | 0.0 | 0.0 | 0.00 | 0.00 | 0.00 | 74 | 1007.2 |
| 20260504044725 | 6 | 47 | 0.0 | 0.0 | 0.00 | 0.00 | 0.00 | 72 | 1006.9 |
| 20260504044222 | 6 | 45 | 0.0 | 0.0 | 0.00 | 0.00 | 0.00 | 72 | 1007.1 |
| 20260504043720 | 6 | 45 | 0.0 | 0.0 | 0.00 | 0.00 | 0.00 | 72 | 1007.2 |
| 20260504043216 | 6 | 42 | 0.0 | 1.6 | 0.00 | 0.00 | 0.00 | 71 | 1007.4 |
| 20260504042714 | 7 | 44 | 0.0 | 0.0 | 0.00 | 0.00 | 0.00 | 70 | 1007.2 |
| 20260504042210 | 7 | 43 | 0.0 | 1.6 | 0.00 | 0.00 | 0.00 | 69 | 1007.4 |
| 20260504041706 | 7 | 32 | 1.6 | 1.6 | 0.00 | 0.00 | 0.00 | 68 | 1007.5 |
| 20260504041202 | 7 | 37 | 0.0 | 0.0 | 0.00 | 0.00 | 0.00 | 68 | 1007.7 |
| 20260504040659 | 7 | 33 | 1.6 | 1.6 | 0.00 | 0.00 | 0.00 | 67 | 1007.6 |
| 20260504040156 | 7 | 23 | 1.6 | 1.6 | 0.00 | 0.00 | 0.00 | 66 | 1007.5 |
| 20260504035652 | 7 | 4 | 1.6 | 3.2 | 0.00 | 0.00 | 0.00 | 66 | 1007.8 |
| 20260504035150 | 7 | 25 | 1.6 | 1.6 | 0.00 | 0.00 | 0.00 | 66 | 1007.6 |
| 20260504034647 | 7 | 332 | 3.2 | 3.2 | 0.00 | 0.00 | 0.00 | 66 | 1007.6 |
| 20260504034144 | 7 | 327 | 3.2 | 3.2 | 0.00 | 0.00 | 0.00 | 65 | 1007.4 |
| 20260504033642 | 7 | 22 | 1.6 | 1.6 | 0.00 | 0.00 | 0.00 | 66 | 1007.6 |
| 20260504033139 | 7 | 342 | 3.2 | 3.2 | 0.00 | 0.00 | 0.00 | 67 | 1007.5 |
| 20260504032635 | 7 | 351 | 1.6 | 3.2 | 0.00 | 0.00 | 0.00 | 66 | 1007.6 |
| 20260504032132 | 7 | 24 | 1.6 | 1.6 | 0.00 | 0.00 | 0.00 | 67 | 1007.4 |
| 20260504031630 | 7 | 10 | 1.6 | 1.6 | 0.00 | 0.00 | 0.00 | 66 | 1007.4 |
| 20260504031126 | 7 | 23 | 0.0 | 1.6 | 0.00 | 0.00 | 0.00 | 66 | 1007.4 |
| 20260504030623 | 7 | 45 | 0.0 | 0.0 | 0.00 | 0.00 | 0.00 | 66 | 1007.3 |
| 20260504030119 | 6 | 35 | 1.6 | 1.6 | 0.00 | 0.00 | 0.00 | 68 | 1007.2 |
| 20260504025616 | 6 | 22 | 1.6 | 1.6 | 0.00 | 0.00 | 0.00 | 67 | 1007.2 |
| 20260504025113 | 6 | 19 | 1.6 | 1.6 | 0.00 | 0.00 | 0.00 | 72 | 1007.1 |
| 20260504024611 | 5 | 31 | 1.6 | 3.2 | 0.00 | 0.00 | 0.00 | 76 | 1007.0 |
| 20260504024107 | 3 | 50 | 0.0 | 0.0 | 0.00 | 0.00 | 0.00 | 80 | 1007.3 |
| 20260504023603 | 3 | 51 | 0.0 | 0.0 | 0.00 | 0.00 | 0.00 | 80 | 1007.0 |
| 20260504023059 | 3 | 51 | 0.0 | 0.0 | 0.00 | 0.00 | 0.00 | 80 | 1007.2 |
| 20260504022556 | 3 | 51 | 0.0 | 0.0 | 0.00 | 0.00 | 0.00 | 79 | 1007.2 |
| 20260504022052 | 3 | 51 | 0.0 | 0.0 | 0.00 | 0.00 | 0.00 | 78 | 1007.1 |
| 20260504021550 | 3 | 51 | 0.0 | 0.0 | 0.00 | 0.00 | 0.00 | 77 | 1007.3 |
| 20260504021046 | 3 | 51 | 0.0 | 0.0 | 0.00 | 0.00 | 0.00 | 77 | 1007.1 |
| 20260504020543 | 3 | 51 | 0.0 | 0.0 | 0.00 | 0.00 | 0.00 | 76 | 1007.1 |
| 20260504020040 | 4 | 51 | 0.0 | 0.0 | 0.00 | 0.00 | 0.00 | 75 | 1007.0 |
| 20260504015536 | 5 | 51 | 0.0 | 0.0 | 0.00 | 0.00 | 0.00 | 73 | 1007.1 |
| 20260504015032 | 5 | 51 | 0.0 | 0.0 | 0.00 | 0.00 | 0.00 | 71 | 1007.0 |
| 20260504014529 | 6 | 51 | 0.0 | 0.0 | 0.00 | 0.00 | 0.00 | 69 | 1007.2 |
| 20260504014026 | 6 | 53 | 0.0 | 0.0 | 0.00 | 0.00 | 0.00 | 64 | 1007.1 |
| 20260504013524 | 6 | 13 | 1.6 | 3.2 | 0.00 | 0.00 | 0.00 | 62 | 1007.1 |
| 20260504013020 | 6 | 20 | 1.6 | 1.6 | 0.00 | 0.00 | 0.00 | 63 | 1007.1 |
| 20260504012518 | 7 | 40 | 0.0 | 0.0 | 0.00 | 0.00 | 0.00 | 63 | 1007.1 |
| 20260504012016 | 7 | 31 | 1.6 | 1.6 | 0.00 | 0.00 | 0.00 | 60 | 1007.3 |
| 20260504011512 | 7 | 20 | 3.2 | 3.2 | 0.00 | 0.00 | 0.00 | 60 | 1007.1 |
| 20260504011008 | 7 | 349 | 1.6 | 3.2 | 0.00 | 0.00 | 0.00 | 59 | 1007.0 |
| 20260504010504 | 7 | 350 | 1.6 | 3.2 | 0.00 | 0.00 | 0.00 | 59 | 1006.6 |
| 20260504010000 | 7 | 350 | 3.2 | 3.2 | 0.00 | 0.00 | 0.00 | 59 | 1006.7 |
| 20260504005457 | 7 | 327 | 3.2 | 3.2 | 0.00 | 0.00 | 0.00 | 59 | 1006.6 |
| 20260504004954 | 7 | 5 | 3.2 | 3.2 | 0.00 | 0.00 | 0.00 | 58 | 1006.9 |
| 20260504004452 | 8 | 29 | 1.6 | 3.2 | 0.00 | 0.00 | 0.00 | 58 | 1006.6 |
| 20260504003949 | 8 | 33 | 1.6 | 1.6 | 0.00 | 0.00 | 0.00 | 57 | 1006.5 |
| 20260504003445 | 8 | 14 | 3.2 | 3.2 | 0.00 | 0.00 | 0.00 | 56 | 1006.6 |
| 20260504002942 | 8 | 332 | 3.2 | 3.2 | 0.00 | 0.00 | 0.00 | 55 | 1006.6 |
| 20260504002439 | 8 | 301 | 4.8 | 4.8 | 0.00 | 0.00 | 0.00 | 54 | 1006.5 |
| 20260504001936 | 8 | 297 | 4.8 | 4.8 | 0.00 | 0.00 | 0.00 | 54 | 1006.5 |
| 20260504001433 | 8 | 299 | 4.8 | 4.8 | 0.00 | 0.00 | 0.00 | 53 | 1006.5 |
| 20260504000930 | 8 | 249 | 3.2 | 3.2 | 0.00 | 0.00 | 0.00 | 53 | 1006.4 |
| 20260504000427 | 9 | 309 | 4.8 | 4.8 | 0.00 | 0.00 | 0.00 | 52 | 1006.4 |
| 20260503235924 | 9 | 310 | 6.4 | 9.7 | 0.00 | 0.00 | 0.00 | 51 | 1006.2 |
| 20260503235422 | 8 | 266 | 3.2 | 3.2 | 0.00 | 0.00 | 0.00 | 49 | 1006.2 |
| 20260503234919 | 9 | 28 | 3.2 | 3.2 | 0.00 | 0.00 | 0.00 | 48 | 1006.4 |
| 20260503234417 | 9 | 307 | 4.8 | 4.8 | 0.00 | 0.00 | 0.00 | 49 | 1006.3 |
| 20260503233914 | 9 | 329 | 4.8 | 4.8 | 0.00 | 0.00 | 0.00 | 48 | 1006.5 |
| 20260503233411 | 9 | 351 | 3.2 | 3.2 | 0.00 | 0.00 | 0.00 | 47 | 1006.0 |
| 20260503232907 | 9 | 11 | 3.2 | 3.2 | 0.00 | 0.00 | 0.00 | 47 | 1006.1 |
| 20260503232405 | 9 | 326 | 3.2 | 3.2 | 0.00 | 0.00 | 0.00 | 46 | 1006.1 |
| 20260503231902 | 10 | 10 | 3.2 | 3.2 | 0.00 | 0.00 | 0.00 | 46 | 1005.8 |
| 20260503231359 | 10 | 309 | 4.8 | 4.8 | 0.00 | 0.00 | 0.00 | 45 | 1006.0 |
| 20260503230855 | 10 | 305 | 3.2 | 3.2 | 0.00 | 0.00 | 0.00 | 45 | 1005.9 |
| 20260503230352 | 10 | 356 | 4.8 | 9.7 | 0.00 | 0.00 | 0.00 | 44 | 1005.7 |
| 20260503225850 | 10 | 289 | 6.4 | 8.0 | 0.00 | 0.00 | 0.00 | 43 | 1005.9 |
| 20260503225345 | 10 | 295 | 8.0 | 11.3 | 0.00 | 0.00 | 0.00 | 43 | 1005.7 |
| 20260503224842 | 10 | 296 | 8.0 | 9.7 | 0.00 | 0.00 | 0.00 | 43 | 1005.5 |
| 20260503224339 | 10 | 328 | 6.4 | 11.3 | 0.00 | 0.00 | 0.00 | 42 | 1005.6 |
| 20260503223837 | 10 | 275 | 4.8 | 8.0 | 0.00 | 0.00 | 0.00 | 42 | 1005.4 |
| 20260503223335 | 10 | 311 | 6.4 | 8.0 | 0.00 | 0.00 | 0.00 | 42 | 1005.6 |
| 20260503222830 | 10 | 39 | 4.8 | 4.8 | 0.00 | 0.00 | 0.00 | 41 | 1005.4 |
| 20260503222329 | 10 | 298 | 4.8 | 4.8 | 0.00 | 0.00 | 0.00 | 39 | 1005.5 |
| 20260503221826 | 10 | 307 | 8.0 | 9.7 | 0.00 | 0.00 | 0.00 | 38 | 1005.7 |
| 20260503221325 | 10 | 152 | 6.4 | 9.7 | 0.00 | 0.00 | 0.00 | 38 | 1005.4 |
| 20260503220820 | 10 | 333 | 4.8 | 4.8 | 0.00 | 0.00 | 0.00 | 38 | 1005.4 |
| 20260503220318 | 11 | 311 | 6.4 | 11.3 | 0.00 | 0.00 | 0.00 | 36 | 1005.3 |
| 20260503215814 | 11 | 282 | 9.7 | 12.9 | 0.00 | 0.00 | 0.00 | 36 | 1005.5 |
| 20260503215312 | 11 | 313 | 6.4 | 8.0 | 0.00 | 0.00 | 0.00 | 36 | 1005.2 |
| 20260503214809 | 11 | 305 | 4.8 | 12.9 | 0.00 | 0.00 | 0.00 | 36 | 1005.2 |
| 20260503214306 | 11 | 310 | 6.4 | 11.3 | 0.00 | 0.00 | 0.00 | 35 | 1005.4 |
| 20260503213804 | 11 | 15 | 8.0 | 11.3 | 0.00 | 0.00 | 0.00 | 35 | 1005.3 |
| 20260503213301 | 11 | 340 | 4.8 | 8.0 | 0.00 | 0.00 | 0.00 | 34 | 1005.5 |
| 20260503212758 | 11 | 304 | 4.8 | 8.0 | 0.00 | 0.00 | 0.00 | 34 | 1005.3 |
| 20260503212256 | 11 | 41 | 6.4 | 11.3 | 0.00 | 0.00 | 0.00 | 34 | 1005.3 |
| 20260503211753 | 11 | 261 | 8.0 | 9.7 | 0.00 | 0.00 | 0.00 | 35 | 1005.4 |
| 20260503211249 | 11 | 317 | 8.0 | 8.0 | 0.00 | 0.00 | 0.00 | 33 | 1005.3 |
| 20260503210744 | 11 | 330 | 8.0 | 11.3 | 0.00 | 0.00 | 0.00 | 33 | 1005.4 |
| 20260503210242 | 11 | 347 | 3.2 | 3.2 | 0.00 | 0.00 | 0.00 | 34 | 1005.2 |
| 20260503205742 | 11 | 335 | 8.0 | 9.7 | 0.00 | 0.00 | 0.00 | 33 | 1005.5 |
| 20260503205239 | 11 | 332 | 4.8 | 8.0 | 0.00 | 0.00 | 0.00 | 34 | 1005.4 |
| 20260503204735 | 11 | 348 | 3.2 | 3.2 | 0.00 | 0.00 | 0.00 | 36 | 1005.4 |
| 20260503204233 | 12 | 4 | 3.2 | 3.2 | 0.00 | 0.00 | 0.00 | 35 | 1005.4 |
| 20260503203730 | 11 | 13 | 4.8 | 8.0 | 0.00 | 0.00 | 0.00 | 38 | 1005.7 |
| 20260503203228 | 11 | 314 | 4.8 | 8.0 | 0.00 | 0.00 | 0.00 | 35 | 1005.5 |
| 20260503202725 | 11 | 306 | 8.0 | 9.7 | 0.00 | 0.00 | 0.00 | 36 | 1005.4 |
| 20260503202223 | 12 | 338 | 9.7 | 11.3 | 0.00 | 0.00 | 0.00 | 35 | 1005.5 |
| 20260503201720 | 12 | 329 | 6.4 | 8.0 | 0.00 | 0.00 | 0.00 | 35 | 1005.6 |
| 20260503201218 | 11 | 339 | 3.2 | 3.2 | 0.00 | 0.00 | 0.00 | 35 | 1005.9 |
| 20260503200714 | 11 | 284 | 1.6 | 3.2 | 0.00 | 0.00 | 0.00 | 36 | 1005.7 |
| 20260503200210 | 11 | 290 | 6.4 | 8.0 | 0.00 | 0.00 | 0.00 | 37 | 1005.7 |
| 20260503195707 | 11 | 328 | 9.7 | 12.9 | 0.00 | 0.00 | 0.00 | 35 | 1005.9 |
| 20260503195204 | 11 | 330 | 9.7 | 12.9 | 0.00 | 0.00 | 0.00 | 36 | 1005.8 |
| 20260503194701 | 11 | 324 | 4.8 | 4.8 | 0.00 | 0.00 | 0.00 | 36 | 1006.0 |
| 20260503194156 | 11 | 322 | 6.4 | 9.7 | 0.00 | 0.00 | 0.00 | 37 | 1006.0 |
| 20260503193653 | 11 | 291 | 4.8 | 4.8 | 0.00 | 0.00 | 0.00 | 37 | 1006.1 |
| 20260503193149 | 11 | 328 | 6.4 | 8.0 | 0.00 | 0.00 | 0.00 | 39 | 1005.8 |
| 20260503192645 | 12 | 337 | 4.8 | 8.0 | 0.00 | 0.00 | 0.00 | 38 | 1006.0 |
| 20260503192141 | 11 | 335 | 4.8 | 8.0 | 0.00 | 0.00 | 0.00 | 40 | 1005.9 |
| 20260503191638 | 10 | 349 | 3.2 | 3.2 | 0.00 | 0.00 | 0.00 | 41 | 1006.2 |
| 20260503191135 | 10 | 334 | 4.8 | 4.8 | 0.00 | 0.00 | 0.00 | 42 | 1006.2 |
| 20260503190632 | 11 | 327 | 9.7 | 12.9 | 0.00 | 0.00 | 0.00 | 41 | 1006.4 |
| 20260503190129 | 10 | 15 | 3.2 | 3.2 | 0.00 | 0.00 | 0.00 | 42 | 1006.3 |
| 20260503185625 | 10 | 325 | 4.8 | 8.0 | 0.00 | 0.00 | 0.00 | 42 | 1006.5 |
| 20260503185120 | 10 | 10 | 4.8 | 4.8 | 0.00 | 0.00 | 0.00 | 43 | 1006.3 |
| 20260503184615 | 10 | 323 | 8.0 | 11.3 | 0.00 | 0.00 | 0.00 | 42 | 1006.6 |
| 20260503184112 | 10 | 296 | 8.0 | 9.7 | 0.00 | 0.00 | 0.00 | 41 | 1006.6 |
| 20260503183609 | 11 | 311 | 8.0 | 11.3 | 0.00 | 0.00 | 0.00 | 41 | 1006.6 |
| 20260503183106 | 10 | 239 | 4.8 | 8.0 | 0.00 | 0.00 | 0.00 | 43 | 1006.7 |
| 20260503182605 | 10 | 290 | 4.8 | 4.8 | 0.00 | 0.00 | 0.00 | 42 | 1006.6 |
| 20260503182102 | 10 | 292 | 4.8 | 8.0 | 0.00 | 0.00 | 0.00 | 42 | 1006.5 |
| 20260503181559 | 10 | 290 | 8.0 | 12.9 | 0.00 | 0.00 | 0.00 | 43 | 1006.9 |
| 20260503181055 | 10 | 309 | 6.4 | 8.0 | 0.00 | 0.00 | 0.00 | 43 | 1006.7 |
| 20260503180553 | 10 | 317 | 3.2 | 4.8 | 0.00 | 0.00 | 0.00 | 47 | 1006.9 |
| 20260503180050 | 10 | 5 | 4.8 | 4.8 | 0.00 | 0.00 | 0.00 | 45 | 1007.0 |
| 20260503175547 | 9 | 310 | 4.8 | 8.0 | 0.00 | 0.00 | 0.00 | 44 | 1007.0 |
| 20260503175044 | 9 | 313 | 6.4 | 8.0 | 0.00 | 0.00 | 0.00 | 46 | 1007.0 |
| 20260503174542 | 9 | 19 | 1.6 | 3.2 | 0.00 | 0.00 | 0.00 | 46 | 1007.1 |
| 20260503174038 | 8 | 307 | 4.8 | 4.8 | 0.00 | 0.00 | 0.00 | 48 | 1007.3 |
| 20260503173533 | 8 | 49 | 3.2 | 4.8 | 0.00 | 0.00 | 0.00 | 49 | 1007.3 |
| 20260503173029 | 7 | 295 | 4.8 | 4.8 | 0.00 | 0.00 | 0.00 | 49 | 1007.3 |
| 20260503172527 | 7 | 324 | 8.0 | 9.7 | 0.00 | 0.00 | 0.00 | 50 | 1007.5 |
| 20260503172024 | 7 | 300 | 6.4 | 9.7 | 0.00 | 0.00 | 0.00 | 49 | 1007.3 |
| 20260503171520 | 8 | 296 | 4.8 | 4.8 | 0.00 | 0.00 | 0.00 | 48 | 1007.3 |
| 20260503171018 | 8 | 306 | 4.8 | 8.0 | 0.00 | 0.00 | 0.00 | 48 | 1007.4 |
| 20260503170514 | 8 | 331 | 4.8 | 4.8 | 0.00 | 0.00 | 0.00 | 51 | 1007.6 |
| 20260503150906 | 6 | 339 | 6.4 | 8.0 | 0.00 | 0.00 | 0.00 | 55 | 1007.8 |
| 20260503150403 | 6 | 288 | 4.8 | 8.0 | 0.00 | 0.00 | 0.00 | 56 | 1007.9 |
| 20260503131256 | 5 | 333 | 4.8 | 4.8 | 0.00 | 0.00 | 0.00 | 70 | 1008.2 |
| 20260503130754 | 5 | 317 | 4.8 | 4.8 | 0.00 | 0.00 | 0.00 | 70 | 1008.6 |
| 20260503130251 | 5 | 333 | 6.4 | 8.0 | 0.00 | 0.00 | 0.00 | 70 | 1008.5 |
| 20260503120217 | 3 | 344 | 4.8 | 9.7 | 0.00 | 0.00 | 0.00 | 80 | 1008.2 |
| 20260503110644 | 2 | 307 | 8.0 | 8.0 | 0.00 | 0.00 | 0.00 | 82 | 1007.9 |
| 20260503110142 | 2 | 314 | 4.8 | 8.0 | 0.00 | 0.00 | 0.00 | 82 | 1007.9 |
| 20260503100109 | 2 | 343 | 3.2 | 3.2 | 0.00 | 0.00 | 0.00 | 83 | 1007.4 |
| 20260503081458 | 2 | 346 | 3.2 | 3.2 | 0.00 | 0.00 | 0.00 | 82 | 1007.7 |
| 20260503080955 | 2 | 335 | 3.2 | 3.2 | 0.00 | 0.00 | 0.00 | 82 | 1007.8 |
| 20260503080451 | 2 | 309 | 4.8 | 4.8 | 0.00 | 0.00 | 0.00 | 82 | 1008.1 |
| 20260503072927 | 2 | 29 | 1.6 | 3.2 | 0.00 | 0.00 | 0.00 | 81 | 1008.1 |
| 20260503072425 | 2 | 322 | 3.2 | 3.2 | 0.00 | 0.00 | 0.00 | 81 | 1007.9 |
| 20260503071922 | 2 | 307 | 3.2 | 3.2 | 0.00 | 0.00 | 0.00 | 81 | 1007.9 |
| 20260503071419 | 2 | 312 | 3.2 | 3.2 | 0.00 | 0.00 | 0.00 | 81 | 1008.0 |
| 20260503070915 | 2 | 306 | 3.2 | 4.8 | 0.00 | 0.00 | 0.00 | 82 | 1008.1 |